Погода Петропавловск-Камч.

Погода Петропавловск-Камч. : погода сейчас, прогноз погоды и архив. Всё, что Вы хотите узнать о погоде Петропавловск-Камч.!

Хотите узнать прогноз погоды Петропавловск-Камч.? Тогда Вам сюда: Погода Петропавловск-Камч.

Поиск расширенной информации на нашем сайте:

Другие новости

Новости СМИ2

Главная страница сайта

Новости сайта

02.10.2013

Напоминаем, что на нашем новом сайте вы можете получить высокодетализированные прогнозы погоды по пунктам России, СНГ и мира (включающие важные для авиации метеовеличины, такие как направление и скорость ветра, видимость, явления погоды, количество и форма облачности, нижняя и верхняя граница облачности), а также ознакомиться с разнообразными материалами по авиационной метеорологии и подборкой полезных ссылок на эту тему.

Сайт Метеоцентр.Азия посвящён разработке технологий оптимизации авиаметеорологического обслуживания, включая проектирование и перспективное создание нескольких автоматизированных авиаметеорологических систем:
- система выпуска высокодетальных прогностических карт явлений погоды для нижнего воздушного пространства по России и ближнему зарубежью;
- система верификации прогнозов TAF (выпускаемых синоптиками официальных АМСГ РФ и ближнего зарубежья) и AUTOTAF (выпускаемых сайтом Метеоцентр.Азия) - выявление ошибок, онлайн-сопоставление с фактической погодой METAR, автоматическое внесение коррективов в прогнозы при резком отклонении фактической погоды от прогноза, подсчёт оправдываемости прогнозов по элементам и в целом;
- система обработки, анализа и отображения авиаметеорологической информации для применения провайдерами метеорологической информации.

Рекомендуем: Aist дорожные классические городские велосипеды.

Погода Петропавловск-Камч. - сегодня

Время (UTC), дата Ветер
(°,м/с) 
Видим.   Явления Облачность Т
(°С)
Тd
(°С)
f(%) Тe
(°С)
Pmin
(гПа)
dP
(гПа)
Po
(мм)
O2
(г/м3)
Тmin Tmax R s Состояние
почвы
03 24.04.17 180 (Ю) 20000 м    9/1 1000 м средняя 
[Sc|Ac As]
+5.6 -6.4 42 +6  1014.8  -0.4  759  300           
06 24.04.17 150 (ЮВ) 20000 м    9/3 1000 м средняя, верхняя 
[Cu Sc|Ac trans|Ci fib]
+6 -7.7 37 +7  1014.2  -0.6  758  300           
09 24.04.17 150 (ЮВ) 20000 м    9/0 средняя, верхняя 
[Ac trans|Ci fib]
+4.4 -4.6 52 +4  1014.1  -0.1  758  301    +7.8  0.0     
12 24.04.17 120 (ЮВ) 20000 м    8/3 600 м средняя, верхняя 
[Sc|Ac trans|Ci fib]
+2.7 -3.8 62 +1  1014.1  758  303           
15 24.04.17 120 (ЮВ) 20000 м    9/1 600 м средняя, верхняя 
[Sc|Ac trans|Ci fib]
+1.7 -3.5 68 1013.3  -0.8  758  304           
18 24.04.17 360 (С) 20000 м    6/0 верхняя 
[Ci fib]
+1 -3.4 72 -1  1012.7  -0.6  757  304           
21 24.04.17 340 (С) 20000 м    3/0 верхняя 
[Ci fib]
+2.2 -5 59 -1  1012.3  -0.5  757  303  +0.8      48  мокрый или
старый снег
50-90% 
00 25.04.17 310 (СЗ) 20000 м    5/0 верхняя 
[Ci fib]
+4.2 -4.4 53 +2  1011.8  -0.5  757  301           
03 25.04.17 300 (СЗ) 20000 м    4/0 верхняя 
[Ci fib]
+6.4 -3.3 50 +6  1011.2  -0.6  756  298           
06 25.04.17 290 (З) 20000 м    8/0 верхняя 
[Ci fib]
+6.4 -3.9 48 +5  1011.1  0.1  756  298           
09 25.04.17 360 (С) 20000 м    8/0 верхняя 
[Ci fib]
+4 -3.4 58 +2  1011.7  0.6  757  301    +8.3       
12 25.04.17 010 (С) 20000 м    3/0 верхняя 
[Ci fib]
+2.2 -5.5 57 1011.8  0.1  757  303           
15 25.04.17 350 (С) 20000 м    ясно 
+0.6 -3.6 73 -2  1011.6  -0.2  756  305           
18 25.04.17 360 (С) 20000 м    ясно 
+0.9 -5.1 64 -2  1011.1  -0.5  756  304           
21 25.04.17 360 (С) 20000 м    ясно 
+2.3 -5.4 57 1010.6  -0.5  756  303  +0.4      42  мокрый или
старый снег
50-90% 
00 26.04.17 290 (З) 20000 м    ясно 
+5.2 -2.8 56 +4  1010.3  -0.3  755  299           
03 26.04.17 230 (ЮЗ) 20000 м    ясно 
+8.3 -3.2 44 +9  1009.4  -0.8  755  296           
06 26.04.17 170 (Ю) 20000 м    ясно 
+7.3 -1.9 52 +8  1009.1  -0.3  755  296           
09 26.04.17 150 (ЮВ) 20000 м    ясно 
+2.9 -2.9 66 +1  1009.6  0.5  755  301    +8.8       
12 26.04.17 тихо ()   20000 м    ясно 
+1 -4.4 67 +1  1009.7  0.1  755  304           
15 26.04.17 110 (В) 20000 м    1/1 300 м 
[St]
+0.4 -2.8 79 -1  1009.4  -0.3  755  304           
18 26.04.17 100 (В) 20000 м    10/10 300 м 
[Sc]
+0.4 -3.1 77 1008.6  -0.8  754  304           
21 26.04.17 100 (В) 10 км  слаб. ливневой снег  10/10 450 м кучево-дожд. 
[Cb cap]
+0.8 -3.6 72 1008.1  -0.5  754  303  +0.2    0.0  35  мокрый или
старый снег
50-90% 
00 27.04.17 140 (ЮВ) 10 км  слаб. ливневой снег  10/10 630 м кучево-дожд. 
[Cb cap]
+0.9 -3.9 70 1007.4  -0.7  753  303           
03 27.04.17 110 (В) 10 км  слаб. ливневой снег  10/10 600 м кучево-дожд. 
[Cb cap]
+1.1 -3.2 73 1006.2  -1.2  752  302           
Время (UTC), дата Ветер
(°,м/с) 
Видим.   Явления Облачность Т
(°С)
Тd
(°С)
f(%) Тe
(°С)
Pmin
(гПа)
dP
(гПа)
Po
(мм)
O2
(г/м3)
Тmin Tmax R s Состояние
почвы

Для получения пояснительной информации подведите курсор к названию столбца.

ПОГОДА Петропавловск-Камч. - архив

Всё, что Вы хотите узнать о погоде Петропавловск-Камч. - удобно и подробно!

Выберите нужную дату (начиная с 1 января 2015* года) и нажмите кнопку "Найти".
Будут отображены архивные сводки погоды по пункту Петропавловск-Камч., начиная с указанной даты.


Отображать данные в формате CSV (для использования в таблицах Excel)


Внимание! Наш архив погоды предназначен исключительно для личного некоммерческого использования в познавательных целях. Если Вам необходимы официальные справки о состоянии погоды (для производственных, юридических, коммерческих и т.п. целей), обращайтесь в органы Росгидромета.

*Примечание: данная дата относится к архиву по метеостанциям СССР (Россия, СНГ, Балтия).
Архив по метеостанциям Зарубежной Европы и Азии (кроме Китая) хранится 10 дней, по другим регионам земного шара (Китай, Африка, Америка, Австралия, Океания) - 1 день.

Петропавловск-Камч. - район местоположения метеостанции


Название, широта, долгота, высота метеостанции:
Петропавловск-Камч. (обсерватория) 53°ш. 158.6°д. 24 м над ур. моря [Российская Федерация]

Дополнительная информация

В oтличие oт бoльшинства пoгoдных сайтoв мы публикуем пoдрoбную метеoинфoрмацию в детальнoм прoфессиoнальнoм фoрмате.

Характеристики температуры и влажнoсти вoздуха измеряются на высoте 2 м в тени вдали oт зданий и деревьев.
Скoрoсть ветра измеряется на высoте 10 м (на урoвне рoста челoвека скoрoсть ветра ниже в 1.5-2 раза). Если метеoстанция нахoдится в гoрoде или в лесу, тo скoрoсть ветра занижена на 2-4 м/с пo сравнению с oткрытым местoм. Скoрoсть ветра над акватoриями крупных рек и oзёр, а также на вершинах хoлмoв на 2-5 м/с выше, чем в oбычных услoвиях.
Атмoсфернoе давление в разных тoчках местнoсти мoжет значительнo oтличаться oт давления на метеoстанции, в зависимoсти oт услoвий рельефа (при пoдъёме на 10 м давление пoнижается примернo на 1 мм рт.ст.).